This is the latest recevied weather packets stored in our database for station/object KC2TER. If no packets are shown the sender has not sent any weather packets the latest 10 day(s).
| Time | Temp. | Humidity | Pressure | Rain* | Wind** | Luminosity | Snow |
|---|---|---|---|---|---|---|---|
| 1778240918 | 10° C | 76% | 1013.8 hPa | 0 mm | - | 210 W/m² | - |
| 1778240615 | 10° C | 76% | 1013.6 hPa | 0 mm | - | 93 W/m² | - |
| 1778240312 | 9.44° C | 78% | 1013.6 hPa | 0 mm | - | 55 W/m² | - |
| 1778240010 | 9.44° C | 78% | 1013.5 hPa | 0 mm | - | 42 W/m² | - |
| 1778239706 | 9.44° C | 78% | 1013.6 hPa | 0 mm | - | 41 W/m² | - |
| 1778239403 | 8.89° C | 79% | 1013.5 hPa | 0 mm | - | 47 W/m² | - |
| 1778239100 | 8.89° C | 79% | 1013.6 hPa | 0 mm | - | 62 W/m² | - |
| 1778238797 | 8.89° C | 80% | 1013.4 hPa | 0 mm | - | 52 W/m² | - |
| 1778238494 | 8.33° C | 81% | 1013.3 hPa | 0 mm | - | 36 W/m² | - |
| 1778238192 | 8.33° C | 82% | 1013.2 hPa | 0 mm | - | 39 W/m² | - |
| 1778237891 | 7.78° C | 82% | 1013.4 hPa | 0 mm | - | 30 W/m² | - |
| 1778237588 | 7.78° C | 82% | 1013.3 hPa | 0 mm | - | 29 W/m² | - |
| 1778237285 | 7.78° C | 83% | 1013.1 hPa | 0 mm | - | 26 W/m² | - |
| 1778236982 | 7.78° C | 84% | 1013 hPa | 0 mm | - | 25 W/m² | - |
| 1778236679 | 7.22° C | 84% | 1013.1 hPa | 0 mm | - | 23 W/m² | - |
| 1778236376 | 7.22° C | 85% | 1012.9 hPa | 0 mm | - | 21 W/m² | - |
| 1778236074 | 7.22° C | 85% | 1013.3 hPa | 0 mm | - | 18 W/m² | - |
| 1778235772 | 7.22° C | 85% | 1012.9 hPa | 0 mm | - | 16 W/m² | - |
| 1778235469 | 7.22° C | 84% | 1012.7 hPa | 0 mm | - | 13 W/m² | - |
| 1778235166 | 7.22° C | 84% | 1012.8 hPa | 0 mm | - | 11 W/m² | - |
| 1778234863 | 7.22° C | 83% | 1012.7 hPa | 0 mm | - | 8 W/m² | - |
| 1778234561 | 7.22° C | 82% | 1012.7 hPa | 0 mm | - | 6 W/m² | - |
| 1778234257 | 7.78° C | 81% | 1012.8 hPa | 0 mm | - | 3 W/m² | - |
| 1778233955 | 7.78° C | 81% | 1012.6 hPa | 0 mm | - | 3 W/m² | - |
| 1778233651 | 7.78° C | 80% | 1012.6 hPa | 0 mm | - | 0 W/m² | - |
* Rain latest hour (hover to see other rain measurements)
** Current wind speed in m/s (hover to see current wind gust speed)